Regional Weather Roundup
Issued by NWS

Home | Current Version | Previous Version | Graphics & Text | Print | Product List | Glossary On
Versions: 1 2 3 4 5 6 7 8 9 10 11 12 13 14 15 16 17 18 19 20 21 22 23 24 25 26 27 28 29 30 31 32 33 34 35 36 37 38 39 40 41 42 43 44 45 46 47 48 49 50
000
ASUS43 KLMK 292310
RWRKY
KENTUCKY REGIONAL WEATHER ROUNDUP
NATIONAL WEATHER SERVICE LOUISVILLE KY
700 PM EDT FRI AUG 29 2014

NOTE "FAIR" INDICATES FEW OR NO CLOUDS BELOW 12,000 FEET
WITH NO SIGNIFICANT WEATHER AND/OR OBSTRUCTIONS TO VISIBILITY.

KYZ001>023-026-027-061>063-070>075-300000-
WESTERN AND SOUTH CENTRAL KENTUCKY

CITY           SKY/WX    TMP DP  RH WIND       PRES   REMARKS
PADUCAH        SUNNY     89  63  41 S7        29.92S HX  90
HENDERSON      MOSUNNY   90  64  43 S7        29.92S HX  91
OWENSBORO      NOT AVBL
HOPKINSVILLE   MOSUNNY   88  66  48 S7        29.97R HX  90
BOWLING GREEN  PTSUNNY   87  62  43 S12       29.98S
GLASGOW        PTSUNNY   85  62  46 S3        30.00S
$$

KYZ024-025-028>034-038-045-046-053-300000-
NORTH CENTRAL KENTUCKY

CITY           SKY/WX    TMP DP  RH WIND       PRES   REMARKS
LOUISVILLE/SDF MOSUNNY   88  61  40 S10G20    29.98R
LOUISVILLE/LOU MOSUNNY   88  59  37 VRB7G18   29.98S
FORT KNOX      PTSUNNY   84  66  53 SE7       29.98S
$$

KYZ035>037-039>044-047>052-055>060-089>105-300000-
NORTHEAST KENTUCKY

CITY           SKY/WX    TMP DP  RH WIND       PRES   REMARKS
LEXINGTON      SUNNY     89  68  49 SW5       30.02S HX  93
COVINGTON      MOSUNNY   87  70  56 S7        30.00  HX  92
FRANKFORT      SUNNY     87  65  47 S8        30.00S
$$

KYZ054-064>069-076>088-106>120-300000-
SOUTHEAST KENTUCKY

CITY           SKY/WX    TMP DP  RH WIND       PRES   REMARKS
JACKSON        MOSUNNY   82  69  64 CALM      30.07R
LONDON         SUNNY     89  66  46 S3        30.05S HX  91
SOMERSET       SUNNY     86  61  42 W3        30.04S
MIDDLESBORO    SUNNY     87  67  51 SW5       30.06R HX  90
MONTICELLO     CLEAR     86  69  56 SW5       30.05R HX  90
$$




USA.gov is the U.S. government's official web portal to all federal, state and local government web resources and services.